Find Starlink 37103

NORAD ID: 68267 Int'l Des: 2026-055 Owner: SPXS Country: US Constellation: starlink operational
LEOCIRCULAR

Live Position

Loading 3D Globe...

About Starlink 37103

Description loading...

Upcoming Passes

Passes for default location (London). Set your location on the main map for personalized predictions.

Altitude History

Loading altitude history...

Two-Line Element Set

1 68267U 26055F 26110.55179456 -.01286246 00000-0 -72199-2 0 9990
2 68267 53.1563 127.4374 0000835 23.2393 336.8667 15.81388326 6303
Epoch: Apr 20, 2026 • Age: 52 hours

Current Status

Altitude 342.0 km
Velocity 7.71 km/s
Sub-Earth Point 21.18°N, 27.38°E
Launch Date Mar 19, 2026
Age 34 days
Type internet

Technical Details

Classification Payload
Mass 575.00 kg
Dry Mass 530.00 kg
Total Mass 575.00 kg
Length 0.30 m
Diameter 4.10 m
Span 29.00 m
Shape Box + pan
Manufacturer SPXS
Bus Type Starlink V2MO
Phase Status In Orbit
Owner/State SPXS/US

Most Searched